NOAA 16 DEB, 41290

Orbit data source: Space-Track

NOAA 16 DEB, 41290 is space debris in SSO originally from a launch on Thu, 21 Sep 2000 UTC launched from the Air Force Western Test Range (AFWTR). Debris objects in space refer to the collection of defunct objects orbiting the Earth. Examples of debris include non-operational satellites, rocket bodies, and fragments generated from explosions, collisions, or faulty payload assembly.

Loading next visibility...
Identifier
41290, 2000-055GS
Orbit
SSO
Country
Flag of USUS
Related business
Manufacturer
Unknown
Mission
Spacecraft
Bus & Motor
Unknown
Mass
Unknown
Launch date (UTC)
2000-09-21 (25 years ago)
Launch vehicle
Unknown
Launch site
Air Force Western Test Range (AFWTR)
Object type
Payload
Rocket body
Debris
Shape & HBR
Unknown
Radar Cross Section
Small (<0.1 m²)

Expand to show TLE details & history
Last TLE update: 1 day ago

TLE from 1 day ago
0 NOAA 16 DEB
1 41290U 00055GS  25259.06737107  .00017249  00000-0  35352-2 0  9993
2 41290  99.0071 115.2865 0013475 226.2210 133.7874 14.60737562506541
Epoch: 2025-09-16T01:37Z
TLE epoch observation values (Epoch: 2025-09-16T01:37:00.86Z)
Latitude
-0°
Longitude
95.76992°
Altitude
700.353 km
Speed
7.502 km/s
True Right ascension
07h 41m 08s
True Declination
0° 00' 00"
Sunlit
Object was in daylight at epoch
Visualization orbit readout
Latitude
Unknown
Longitude
Unknown
Altitude
Unknown
Speed
Unknown
Apparent Right ascension
Unknown
Apparent Declination
Unknown
Sunlit
N/A
Visualization observer readout
Local Sidereal Time
21:35:45
Azimuth
Unknown
Elevation
Unknown
Doppler factor
Unknown
Orbital elements
Apogee altitude
697.434 km
Perigee altitude
678.391 km
Semi-major axis
7,066.05 km
Eccentricity
0.00135
Inclination
99.0071°
RAAN
115.2865°
Arg. of periapsis
226.221°
True anomaly
133.89874°
Mean anomaly
133.7874°
Eccentric anomaly
133.84308°
Mean motion
3.65408 °/min
Orbital period
98.52 mins
BSTAR
0.0035352
Loading maneuver chart data...
Computing Atmospheric mass density...
Loading historical data...
Loading historical data...
Loading historical data...
Loading historical data...
Loading historical data...
Loading historical data...
Loading historical data...

Documentation

Showing up to 5 results
|